| time (UTC) | temp F | wind direction | speed MPH | gust MPH | rain 1hr in | rain 24hr in | rain mn in | humidity % | barometer mb |
| 20260504034647 | 55 | 41 | 0.0 | 0.0 | 0.00 | 0.00 | 0.00 | 10 | 1010.7 |
| 20260504034144 | 55 | 36 | 0.0 | 0.0 | 0.00 | 0.00 | 0.00 | 10 | 1010.4 |
| 20260504033642 | 56 | 33 | 0.0 | 0.0 | 0.00 | 0.00 | 0.00 | 10 | 1010.1 |
| 20260504033139 | 56 | 46 | 0.0 | 0.0 | 0.00 | 0.00 | 0.00 | 10 | 1010.3 |
| 20260504032635 | 57 | 38 | 0.0 | 0.0 | 0.00 | 0.00 | 0.00 | 10 | 1010.2 |
| 20260504032132 | 57 | 43 | 0.0 | 0.0 | 0.00 | 0.00 | 0.00 | 10 | 1010.3 |
| 20260504031630 | 57 | 58 | 0.0 | 0.0 | 0.00 | 0.00 | 0.00 | 10 | 1010.1 |
| 20260504031126 | 58 | 40 | 0.0 | 0.0 | 0.00 | 0.00 | 0.00 | 10 | 1010.1 |
| 20260504030623 | 58 | 45 | 0.0 | 0.0 | 0.00 | 0.00 | 0.00 | 10 | 1009.9 |
| 20260504030119 | 59 | 48 | 0.0 | 0.0 | 0.00 | 0.00 | 0.00 | 10 | 1009.9 |
| 20260504025616 | 59 | 46 | 0.0 | 0.0 | 0.00 | 0.00 | 0.00 | 10 | 1009.7 |
| 20260504025113 | 59 | 43 | 0.0 | 0.0 | 0.00 | 0.00 | 0.00 | 10 | 1009.8 |
| 20260504024611 | 60 | 52 | 0.0 | 0.0 | 0.00 | 0.00 | 0.00 | 10 | 1009.6 |
| 20260504024107 | 61 | 53 | 0.0 | 1.0 | 0.00 | 0.00 | 0.00 | 10 | 1009.7 |
| 20260504023603 | 61 | 52 | 0.0 | 0.0 | 0.00 | 0.00 | 0.00 | 10 | 1009.7 |
| 20260504023059 | 62 | 37 | 0.0 | 0.0 | 0.00 | 0.00 | 0.00 | 10 | 1009.7 |
| 20260504022556 | 63 | 54 | 2.0 | 11.0 | 0.00 | 0.00 | 0.00 | 10 | 1009.4 |
| 20260504022052 | 63 | 41 | 1.0 | 2.0 | 0.00 | 0.00 | 0.00 | 10 | 1009.8 |
| 20260504021550 | 63 | 44 | 0.0 | 0.0 | 0.00 | 0.00 | 0.00 | 10 | 1009.6 |
| 20260504021046 | 64 | 42 | 0.0 | 0.0 | 0.00 | 0.00 | 0.00 | 10 | 1009.1 |
| 20260504020543 | 65 | 37 | 0.0 | 0.0 | 0.00 | 0.00 | 0.00 | 10 | 1009.3 |
| 20260504020040 | 66 | 26 | 0.0 | 0.0 | 0.00 | 0.00 | 0.00 | 10 | 1009.4 |
| 20260504015536 | 66 | 42 | 0.0 | 2.0 | 0.00 | 0.00 | 0.00 | 10 | 1009.6 |
| 20260504015032 | 67 | 39 | 0.0 | 0.0 | 0.00 | 0.00 | 0.00 | 10 | 1009.3 |
| 20260504014529 | 68 | 41 | 0.0 | 0.0 | 0.00 | 0.00 | 0.00 | 10 | 1009.2 |
| 20260504014026 | 69 | 26 | 0.0 | 0.0 | 0.00 | 0.00 | 0.00 | 10 | 1009.3 |
| 20260504013524 | 69 | 16 | 0.0 | 0.0 | 0.00 | 0.00 | 0.00 | 10 | 1009.6 |
| 20260504013020 | 70 | 20 | 0.0 | 1.0 | 0.00 | 0.00 | 0.00 | 10 | 1009.2 |
| 20260504012518 | 70 | 12 | 0.0 | 0.0 | 0.00 | 0.00 | 0.00 | 10 | 1009.3 |
| 20260504012016 | 71 | 2 | 0.0 | 0.0 | 0.00 | 0.00 | 0.00 | 10 | 1009.3 |
| 20260504011512 | 71 | 3 | 1.0 | 2.0 | 0.00 | 0.00 | 0.00 | 10 | 1009.2 |
| 20260504011008 | 71 | 33 | 1.0 | 2.0 | 0.00 | 0.00 | 0.00 | 10 | 1009.3 |
| 20260504010504 | 71 | 13 | 0.0 | 2.0 | 0.00 | 0.00 | 0.00 | 10 | 1009.3 |
| 20260504010000 | 71 | 349 | 0.0 | 2.0 | 0.00 | 0.00 | 0.00 | 10 | 1009.1 |
| 20260504005457 | 71 | 11 | 1.0 | 3.0 | 0.00 | 0.00 | 0.00 | 10 | 1009.3 |
| 20260504004954 | 71 | 1 | 1.0 | 2.0 | 0.00 | 0.00 | 0.00 | 10 | 1009.4 |
| 20260504004452 | 71 | 17 | 0.0 | 2.0 | 0.00 | 0.00 | 0.00 | 10 | 1009.4 |
| 20260504003949 | 71 | 14 | 0.0 | 0.0 | 0.00 | 0.00 | 0.00 | 10 | 1009.4 |
| 20260504003445 | 72 | 20 | 1.0 | 3.0 | 0.00 | 0.00 | 0.00 | 10 | 1009.4 |
| 20260504002942 | 71 | 359 | 0.0 | 1.0 | 0.00 | 0.00 | 0.00 | 10 | 1009.6 |
| 20260504002439 | 71 | 359 | 0.0 | 0.0 | 0.00 | 0.00 | 0.00 | 10 | 1009.7 |
| 20260504001936 | 71 | 23 | 1.0 | 2.0 | 0.00 | 0.00 | 0.00 | 10 | 1009.6 |
| 20260504001433 | 71 | 6 | 0.0 | 1.0 | 0.00 | 0.00 | 0.00 | 10 | 1009.6 |
| 20260504000930 | 72 | 4 | 0.0 | 0.0 | 0.00 | 0.00 | 0.00 | 10 | 1009.8 |
| 20260504000427 | 72 | 2 | 1.0 | 2.0 | 0.00 | 0.00 | 0.00 | 10 | 1009.8 |
| 20260503235924 | 72 | 358 | 0.0 | 14.0 | 0.00 | 0.00 | 0.00 | 10 | 1009.8 |
| 20260503235422 | 71 | 21 | 0.0 | 0.0 | 0.00 | 0.00 | 0.00 | 10 | 1009.9 |
| 20260503234919 | 71 | 28 | 1.0 | 2.0 | 0.00 | 0.00 | 0.00 | 10 | 1010.0 |
| 20260503234417 | 73 | 359 | 2.0 | 3.0 | 0.00 | 0.00 | 0.00 | 10 | 1009.8 |
| 20260503233914 | 72 | 333 | 1.0 | 3.0 | 0.00 | 0.00 | 0.00 | 10 | 1009.9 |
| 20260503233411 | 73 | 31 | 0.0 | 0.0 | 0.00 | 0.00 | 0.00 | 10 | 1009.9 |
| 20260503232907 | 73 | 353 | 1.0 | 2.0 | 0.00 | 0.00 | 0.00 | 10 | 1009.8 |
| 20260503232405 | 72 | 21 | 0.0 | 0.0 | 0.00 | 0.00 | 0.00 | 10 | 1009.9 |
| 20260503231902 | 72 | 8 | 0.0 | 2.0 | 0.00 | 0.00 | 0.00 | 10 | 1009.8 |
| 20260503231359 | 72 | 336 | 1.0 | 3.0 | 0.00 | 0.00 | 0.00 | 10 | 1009.8 |
| 20260503230855 | 72 | 353 | 1.0 | 2.0 | 0.00 | 0.00 | 0.00 | 10 | 1010.0 |
| 20260503230352 | 73 | 357 | 0.0 | 2.0 | 0.00 | 0.00 | 0.00 | 10 | 1010.0 |
| 20260503225850 | 71 | 21 | 0.0 | 0.0 | 0.00 | 0.00 | 0.00 | 10 | 1010.1 |
| 20260503225345 | 72 | 355 | 1.0 | 2.0 | 0.00 | 0.00 | 0.00 | 10 | 1010.0 |
| 20260503224842 | 72 | 359 | 0.0 | 2.0 | 0.00 | 0.00 | 0.00 | 10 | 1010.3 |
| 20260503224339 | 72 | 23 | 0.0 | 2.0 | 0.00 | 0.00 | 0.00 | 10 | 1010.2 |
| 20260503223837 | 72 | 16 | 0.0 | 1.0 | 0.00 | 0.00 | 0.00 | 10 | 1010.1 |
| 20260503223334 | 72 | 1 | 0.0 | 2.0 | 0.00 | 0.00 | 0.00 | 10 | 1010.3 |
| 20260503222830 | 72 | 17 | 0.0 | 0.0 | 0.00 | 0.00 | 0.00 | 10 | 1010.1 |
| 20260503222329 | 72 | 36 | 0.0 | 1.0 | 0.00 | 0.00 | 0.00 | 10 | 1010.2 |
| 20260503221826 | 72 | 357 | 1.0 | 5.0 | 0.00 | 0.00 | 0.00 | 10 | 1010.3 |
| 20260503221325 | 72 | 10 | 0.0 | 0.0 | 0.00 | 0.00 | 0.00 | 10 | 1010.4 |
| 20260503220820 | 72 | 353 | 0.0 | 0.0 | 0.00 | 0.00 | 0.00 | 10 | 1010.3 |
| 20260503220318 | 72 | 19 | 0.0 | 2.0 | 0.00 | 0.00 | 0.00 | 10 | 1010.2 |
| 20260503215814 | 72 | 343 | 3.0 | 7.0 | 0.00 | 0.00 | 0.00 | 10 | 1010.5 |
| 20260503215312 | 72 | 358 | 0.0 | 1.0 | 0.00 | 0.00 | 0.00 | 10 | 1010.5 |
| 20260503214809 | 72 | 24 | 2.0 | 3.0 | 0.00 | 0.00 | 0.00 | 10 | 1010.7 |
| 20260503214306 | 72 | 6 | 0.0 | 3.0 | 0.00 | 0.00 | 0.00 | 10 | 1010.5 |
| 20260503213804 | 71 | 15 | 0.0 | 1.0 | 0.00 | 0.00 | 0.00 | 10 | 1011.0 |
| 20260503213301 | 72 | 20 | 1.0 | 3.0 | 0.00 | 0.00 | 0.00 | 10 | 1010.8 |
| 20260503212758 | 72 | 7 | 0.0 | 1.0 | 0.00 | 0.00 | 0.00 | 10 | 1010.8 |
| 20260503212256 | 71 | 6 | 0.0 | 0.0 | 0.00 | 0.00 | 0.00 | 10 | 1011.0 |
| 20260503211753 | 71 | 2 | 0.0 | 1.0 | 0.00 | 0.00 | 0.00 | 10 | 1011.0 |
| 20260503211249 | 71 | 3 | 1.0 | 2.0 | 0.00 | 0.00 | 0.00 | 10 | 1011.0 |
| 20260503210744 | 71 | 357 | 1.0 | 3.0 | 0.00 | 0.00 | 0.00 | 10 | 1011.1 |
| 20260503210242 | 72 | 340 | 0.0 | 2.0 | 0.00 | 0.00 | 0.00 | 10 | 1011.3 |
| 20260503205742 | 71 | 28 | 2.0 | 3.0 | 0.00 | 0.00 | 0.00 | 10 | 1011.4 |
| 20260503205239 | 71 | 23 | 1.0 | 2.0 | 0.00 | 0.00 | 0.00 | 10 | 1011.4 |
| 20260503204735 | 73 | 21 | 0.0 | 1.0 | 0.00 | 0.00 | 0.00 | 10 | 1011.5 |
| 20260503204233 | 70 | 9 | 1.0 | 2.0 | 0.00 | 0.00 | 0.00 | 10 | 1011.5 |
| 20260503203730 | 71 | 14 | 0.0 | 0.0 | 0.00 | 0.00 | 0.00 | 10 | 1011.6 |
| 20260503203228 | 70 | 32 | 0.0 | 0.0 | 0.00 | 0.00 | 0.00 | 10 | 1011.8 |
| 20260503202725 | 71 | 27 | 0.0 | 1.0 | 0.00 | 0.00 | 0.00 | 10 | 1011.6 |
| 20260503202223 | 70 | 20 | 0.0 | 1.0 | 0.00 | 0.00 | 0.00 | 10 | 1011.8 |
| 20260503201720 | 70 | 4 | 1.0 | 3.0 | 0.00 | 0.00 | 0.00 | 10 | 1011.6 |
| 20260503201218 | 70 | 8 | 0.0 | 2.0 | 0.00 | 0.00 | 0.00 | 10 | 1012.0 |
| 20260503200714 | 69 | 0 | 0.0 | 2.0 | 0.00 | 0.00 | 0.00 | 10 | 1012.0 |
| 20260503200210 | 70 | 5 | 0.0 | 0.0 | 0.00 | 0.00 | 0.00 | 10 | 1012.1 |
| 20260503195707 | 70 | 331 | 2.0 | 3.0 | 0.00 | 0.00 | 0.00 | 10 | 1012.2 |
| 20260503195204 | 69 | 340 | 2.0 | 5.0 | 0.00 | 0.00 | 0.00 | 10 | 1012.0 |
| 20260503194701 | 69 | 310 | 0.0 | 1.0 | 0.00 | 0.00 | 0.00 | 10 | 1012.3 |
| 20260503194156 | 69 | 348 | 0.0 | 1.0 | 0.00 | 0.00 | 0.00 | 10 | 1012.2 |
| 20260503193653 | 68 | 17 | 0.0 | 1.0 | 0.00 | 0.00 | 0.00 | 10 | 1012.4 |
| 20260503193149 | 68 | 14 | 0.0 | 10.0 | 0.00 | 0.00 | 0.00 | 10 | 1012.5 |
| 20260503192645 | 70 | 359 | 0.0 | 2.0 | 0.00 | 0.00 | 0.00 | 10 | 1012.5 |
| 20260503192141 | 69 | 28 | 0.0 | 0.0 | 0.00 | 0.00 | 0.00 | 10 | 1012.6 |
| 20260503191638 | 70 | 4 | 0.0 | 1.0 | 0.00 | 0.00 | 0.00 | 10 | 1012.6 |
| 20260503191135 | 70 | 341 | 1.0 | 2.0 | 0.00 | 0.00 | 0.00 | 10 | 1012.6 |
| 20260503190632 | 68 | 36 | 0.0 | 1.0 | 0.00 | 0.00 | 0.00 | 10 | 1012.6 |
| 20260503190128 | 68 | 45 | 0.0 | 1.0 | 0.00 | 0.00 | 0.00 | 10 | 1012.7 |
| 20260503185625 | 69 | 338 | 0.0 | 2.0 | 0.00 | 0.00 | 0.00 | 10 | 1012.7 |
| 20260503185120 | 69 | 346 | 0.0 | 0.0 | 0.00 | 0.00 | 0.00 | 10 | 1013.0 |
| 20260503184615 | 69 | 310 | 1.0 | 3.0 | 0.00 | 0.00 | 0.00 | 10 | 1013.1 |
| 20260503184112 | 69 | 358 | 2.0 | 3.0 | 0.00 | 0.00 | 0.00 | 10 | 1013.0 |
| 20260503183609 | 68 | 7 | 1.0 | 6.0 | 0.00 | 0.00 | 0.00 | 10 | 1013.1 |
| 20260503183106 | 69 | 317 | 1.0 | 3.0 | 0.00 | 0.00 | 0.00 | 10 | 1013.2 |
| 20260503182605 | 68 | 6 | 1.0 | 2.0 | 0.00 | 0.00 | 0.00 | 10 | 1013.2 |
| 20260503182102 | 69 | 20 | 0.0 | 0.0 | 0.00 | 0.00 | 0.00 | 10 | 1013.3 |
| 20260503181559 | 67 | 354 | 0.0 | 1.0 | 0.00 | 0.00 | 0.00 | 10 | 1013.3 |
| 20260503181055 | 68 | 2 | 0.0 | 0.0 | 0.00 | 0.00 | 0.00 | 10 | 1013.4 |
| 20260503180553 | 68 | 350 | 0.0 | 2.0 | 0.00 | 0.00 | 0.00 | 10 | 1013.4 |
| 20260503180050 | 68 | 352 | 0.0 | 1.0 | 0.00 | 0.00 | 0.00 | 10 | 1013.3 |
| 20260503175547 | 68 | 9 | 0.0 | 0.0 | 0.00 | 0.00 | 0.00 | 10 | 1013.5 |
| 20260503175044 | 68 | 30 | 0.0 | 0.0 | 0.00 | 0.00 | 0.00 | 10 | 1013.6 |
| 20260503174542 | 68 | 2 | 0.0 | 1.0 | 0.00 | 0.00 | 0.00 | 10 | 1013.4 |
| 20260503174038 | 68 | 35 | 0.0 | 3.0 | 0.00 | 0.00 | 0.00 | 10 | 1013.7 |
| 20260503173533 | 68 | 12 | 0.0 | 0.0 | 0.00 | 0.00 | 0.00 | 10 | 1013.7 |
| 20260503173029 | 69 | 12 | 0.0 | 3.0 | 0.00 | 0.00 | 0.00 | 10 | 1013.9 |
| 20260503172527 | 68 | 356 | 1.0 | 2.0 | 0.00 | 0.00 | 0.00 | 10 | 1013.9 |
| 20260503172024 | 68 | 24 | 0.0 | 0.0 | 0.00 | 0.00 | 0.00 | 10 | 1013.9 |
| 20260503171520 | 68 | 29 | 0.0 | 2.0 | 0.00 | 0.00 | 0.00 | 10 | 1013.7 |
| 20260503171018 | 68 | 22 | 0.0 | 0.0 | 0.00 | 0.00 | 0.00 | 10 | 1014.0 |
| 20260503170514 | 67 | 19 | 0.0 | 1.0 | 0.00 | 0.00 | 0.00 | 10 | 1013.9 |
| 20260503150906 | 64 | 30 | 0.0 | 0.0 | 0.00 | 0.00 | 0.00 | 10 | 1014.2 |
| 20260503150403 | 63 | 21 | 0.0 | 0.0 | 0.00 | 0.00 | 0.00 | 10 | 1014.4 |
| 20260503131256 | 52 | 303 | 0.0 | 0.0 | 0.00 | 0.00 | 0.00 | 10 | 1014.6 |
| 20260503130754 | 51 | 294 | 0.0 | 1.0 | 0.00 | 0.00 | 0.00 | 10 | 1014.6 |
| 20260503130251 | 50 | 299 | 0.0 | 2.0 | 0.00 | 0.00 | 0.00 | 10 | 1014.6 |
| 20260503120217 | 43 | 314 | 0.0 | 0.0 | 0.00 | 0.00 | 0.00 | 10 | 1015.1 |
| 20260503110644 | 46 | 302 | 0.0 | 0.0 | 0.00 | 0.00 | 0.00 | 10 | 1015.4 |
| 20260503110142 | 45 | 309 | 0.0 | 0.0 | 0.00 | 0.00 | 0.00 | 10 | 1015.4 |
| 20260503100109 | 42 | 293 | 0.0 | 0.0 | 0.00 | 0.00 | 0.00 | 10 | 1015.9 |
| 20260503081458 | 38 | 330 | 0.0 | 0.0 | 0.00 | 0.00 | 0.00 | 10 | 1016.8 |
| 20260503080955 | 38 | 305 | 0.0 | 0.0 | 0.00 | 0.00 | 0.00 | 10 | 1016.6 |
| 20260503080451 | 37 | 311 | 0.0 | 0.0 | 0.00 | 0.00 | 0.00 | 10 | 1016.6 |
| 20260503072927 | 38 | 341 | 0.0 | 0.0 | 0.00 | 0.00 | 0.00 | 10 | 1016.9 |
| 20260503072425 | 38 | 315 | 0.0 | 0.0 | 0.00 | 0.00 | 0.00 | 10 | 1017.2 |
| 20260503071922 | 37 | 317 | 0.0 | 0.0 | 0.00 | 0.00 | 0.00 | 10 | 1017.2 |
| 20260503071419 | 37 | 11 | 0.0 | 0.0 | 0.00 | 0.00 | 0.00 | 10 | 1017.2 |
| 20260503070915 | 37 | 38 | 0.0 | 0.0 | 0.00 | 0.00 | 0.00 | 10 | 1017.2 |
| 20260503070412 | 38 | 36 | 0.0 | 0.0 | 0.00 | 0.00 | 0.00 | 10 | 1017.4 |
| 20260503060338 | 40 | 41 | 0.0 | 0.0 | 0.00 | 0.00 | 0.00 | 10 | 1017.2 |
| 20260503054826 | 41 | 17 | 0.0 | 0.0 | 0.00 | 0.00 | 0.00 | 10 | 1017.4 |
| 20260503054321 | 42 | 2 | 0.0 | 0.0 | 0.00 | 0.00 | 0.00 | 10 | 1017.3 |
| 20260503053820 | 41 | 34 | 0.0 | 0.0 | 0.00 | 0.00 | 0.00 | 10 | 1017.4 |
| 20260503053318 | 44 | 24 | 0.0 | 0.0 | 0.00 | 0.00 | 0.00 | 10 | 1017.4 |
| 20260503052814 | 45 | 9 | 0.0 | 0.0 | 0.00 | 0.00 | 0.00 | 10 | 1017.5 |
| 20260503052311 | 44 | 310 | 0.0 | 0.0 | 0.00 | 0.00 | 0.00 | 10 | 1017.5 |
| 20260503051807 | 44 | 335 | 0.0 | 0.0 | 0.00 | 0.00 | 0.00 | 10 | 1017.6 |
| 20260503051303 | 46 | 332 | 0.0 | 0.0 | 0.00 | 0.00 | 0.00 | 10 | 1017.5 |
| 20260503050800 | 46 | 340 | 0.0 | 0.0 | 0.00 | 0.00 | 0.00 | 10 | 1017.7 |
| 20260503050256 | 47 | 340 | 0.0 | 0.0 | 0.00 | 0.00 | 0.00 | 10 | 1017.5 |
| 20260503045754 | 48 | 318 | 0.0 | 0.0 | 0.00 | 0.00 | 0.00 | 10 | 1017.5 |
| 20260503045252 | 49 | 347 | 0.0 | 0.0 | 0.00 | 0.00 | 0.00 | 10 | 1017.6 |
| 20260503044748 | 48 | 269 | 0.0 | 0.0 | 0.00 | 0.00 | 0.00 | 10 | 1017.5 |
| 20260503044245 | 47 | 298 | 0.0 | 0.0 | 0.00 | 0.00 | 0.00 | 10 | 1017.5 |
| 20260503043742 | 48 | 310 | 0.0 | 0.0 | 0.00 | 0.00 | 0.00 | 10 | 1017.7 |
| 20260503043239 | 45 | 301 | 0.0 | 0.0 | 0.00 | 0.00 | 0.00 | 10 | 1017.5 |
| 20260503042735 | 48 | 303 | 0.0 | 0.0 | 0.00 | 0.00 | 0.00 | 10 | 1017.6 |
| 20260503042232 | 47 | 33 | 0.0 | 0.0 | 0.00 | 0.00 | 0.00 | 10 | 1017.4 |
| 20260503041728 | 47 | 49 | 0.0 | 0.0 | 0.00 | 0.00 | 0.00 | 10 | 1017.4 |
| 20260503041226 | 52 | 64 | 0.0 | 0.0 | 0.00 | 0.00 | 0.00 | 10 | 1017.4 |
| 20260503040723 | 52 | 222 | 0.0 | 0.0 | 0.00 | 0.00 | 0.00 | 10 | 1017.2 |
| 20260503040221 | 51 | 48 | 0.0 | 0.0 | 0.00 | 0.00 | 0.00 | 10 | 1017.4 |
| 20260503035717 | 51 | 45 | 0.0 | 0.0 | 0.00 | 0.00 | 0.00 | 10 | 1017.7 |
| 20260503035215 | 52 | 44 | 0.0 | 0.0 | 0.00 | 0.00 | 0.00 | 10 | 1017.6 |